Temperature
15 15 15 15 15 15 15 16 16 16 16 16 16 16 16 16 16 15 15 15 15 15 15 15 15 15 15 15 15 15 15 15 15 15 15 15 15 15 15 15 14 14 14
16 15 15 15 15 15 15 15 15 16 16 16 16 16 16 15 15 15 15 15 15 15 15 15 15 15 15 15 15 15 15 15 15 15 15 15 15 15 15 15 14 14 14
16 15 15 15 15 15 15 15 15 15 16 16 16 16 15 15 15 15 15 15 15 15 15 15 15 15 15 15 15 15 15 15 15 15 14 14 14 14 14 14 14 14 14
15 15 15 15 15 15 15 15 15 15 15 16 16 15 15 15 15 15 15 14 15 15 15 15 15 15 15 15 15 15 15 15 14 15 14 14 14 14 14 14 14 14 14
15 15 15 15 15 15 15 15 15 15 15 15 15 15 15 15 15 15 15 15 15 15 15 15 15 15 15 15 15 15 15 14 14 14 14 14 14 14 14 14 14 14 14
15 15 15 15 15 15 15 15 15 15 15 15 15 15 15 15 15 15 15 15 15 15 15 15 15 15 15 15 15 15 15 14 14 14 14 14 14 14 14 14 14 14 14
14 14 14 14 14 15 15 15 15 15 15 15 15 15 15 15 15 15 15 15 15 15 14 14 14 14 14 15 14 14 14 14 14 14 14 14 14 14 14 14 14 14 14
14 14 14 14 14 14 14 14 14 14 15 15 15 15 15 15 15 15 15 14 14 14 14 14 14 14 14 14 14 14 14 14 14 14 14 14 13 14 14 14 14 13 13
13 13 13 13 14 14 14 14 14 14 14 14 14 14 14 14 14 14 14 14 14 14 14 14 14 14 14 14 14 14 14 14 14 14 14 14 14 14 14 14 13 13 13
12 13 13 13 13 13 14 14 14 14 14 14 14 14 14 14 14 14 14 14 14 14 14 14 14 14 14 14 14 14 14 14 14 14 14 13 14 14 14 14 13 13 13
12 12 12 12 13 13 13 13 13 13 13 14 14 14 14 14 14 14 14 14 14 14 14 14 14 13 13 13 13 13 13 13 14 14 13 13 13 13 13 13 13 13 13
11 11 12 12 12 12 12 12 13 13 13 13 13 13 13 13 13 14 14 14 14 14 14 13 13 13 13 13 13 13 13 13 13 13 13 13 13 13 13 13 13 13 13
10 10 11 11 12 12 12 12 12 12 12 13 13 13 13 13 13 13 13 13 13 13 13 13 13 13 13 13 13 13 13 13 13 13 13 13 13 13 13 13 13 13 13
10 10 10 11 11 11 11 12 12 12 12 12 12 12 13 13 13 13 13 13 13 13 13 13 13 13 13 13 13 13 13 13 13 13 13 13 13 13 12 13 12 13 12
9 10 10 10 10 11 11 11 11 12 12 12 12 12 12 12 12 12 12 12 12 12 12 12 12 12 12 12 12 12 12 12 12 12 12 12 12 12 12 12 12 12 12
8 9 9 9 10 10 10 11 11 11 11 11 11 12 12 12 12 12 12 12 12 12 12 12 12 12 12 12 12 12 12 12 12 12 12 12 12 12 12 12 12 12 12
8 8 8 9 9 9 10 10 10 11 11 11 11 11 11 11 12 12 12 12 12 12 12 12 12 12 12 12 12 12 12 12 12 12 12 12 12 12 12 12 12 11 11
7 8 8 8 8 9 9 10 10 10 10 10 10 11 11 11 11 11 11 11 11 11 11 11 11 11 11 11 11 11 11 11 12 11 12 12 11 11 11 11 11 11 11
7 7 7 8 8 8 8 9 9 10 10 10 10 10 10 10 11 11 11 11 11 11 11 11 11 11 11 11 11 11 11 11 11 11 11 11 11 11 11 11 11 11 11
6 6 7 7 7 8 8 8 9 9 9 9 9 10 10 10 10 10 11 11 11 11 11 11 11 11 11 11 11 11 11 11 11 11 11 11 11 11 11 11 11 10 10
6 6 6 7 7 7 7 8 8 8 9 9 9 9 9 10 10 10 10 10 10 10 10 10 10 10 10 10 10 10 10 10 10 10 10 10 10 10 10 10 10 10 10
5 5 6 6 6 6 7 7 7 8 8 8 8 9 9 9 9 10 10 10 10 10 10 10 10 10 10 10 10 10 10 10 10 10 10 10 10 10 10 10 10 10 10
4 5 5 5 5 6 6 6 7 7 8 8 8 8 8 9 9 9 9 10 10 10 10 10 10 10 10 10 10 10 10 10 10 10 10 10 10 10 10 10 10 10 10
4 4 5 5 5 5 5 6 6 7 7 7 7 8 8 8 8 9 9 9 9 9 10 10 10 10 10 10 10 10 10 10 10 9 9 10 10 10 9 9 9 9 9
3 4 4 4 4 4 5 5 5 6 6 7 7 7 8 8 8 8 8 9 9 9 9 9 9 9 9 9 10 10 10 10 10 10 9 9 9 9 9 9 9 9 9
3 3 4 4 4 4 4 4 5 5 6 6 6 7 7 7 7 8 8 8 9 9 9 9 9 9 9 9 9 9 10 10 10 10 9 9 9 9 9 9 9 9 9
Wind_Speed
2 3 6 8 10 11 12 13 14 14 15 15 15 15 15 15 15 15 15 16 16 16 17 17 17 18 18 18 19 19 19 19 19 19 18 18 18 19 19 19 18 18 20
4 6 8 9 10 11 12 13 13 14 14 15 15 15 15 14 14 15 15 15 16 16 17 17 17 18 18 18 18 19 19 19 19 18 18 18 18 19 19 19 18 17 19
5 7 9 9 11 12 12 13 13 13 14 14 14 14 14 14 14 14 14 15 16 16 16 16 17 18 18 18 18 18 18 18 18 17 16 15 16 18 19 19 19 19 19
6 7 9 10 11 12 12 13 13 12 13 13 14 13 13 13 13 13 14 15 15 16 16 16 16 17 17 17 17 17 17 17 17 16 14 13 14 17 18 18 18 19 19
5 7 8 10 11 11 12 12 12 12 12 12 13 13 13 12 13 13 13 14 15 15 15 16 16 16 16 16 16 16 16 16 16 15 14 13 13 16 17 18 18 18 18
4 7 9 10 10 11 11 11 12 11 12 12 12 12 12 12 13 13 13 14 14 15 15 15 15 15 15 15 16 16 15 15 15 14 13 12 12 15 17 17 17 17 17
4 5 8 10 10 10 10 10 11 11 12 12 11 11 12 12 13 13 13 13 14 14 14 14 15 15 15 15 15 15 14 14 14 13 12 12 13 15 16 16 16 16 17
4 5 7 9 10 9 9 9 10 10 11 11 11 11 11 12 12 12 12 13 13 13 13 14 14 15 15 15 15 14 13 13 12 12 11 11 13 14 15 15 15 15 16
5 5 5 6 7 9 8 8 9 9 11 11 11 10 11 11 12 12 12 12 12 12 13 13 13 15 14 14 14 13 13 13 12 10 10 10 12 13 14 14 14 14 15
5 5 5 5 5 6 7 8 8 9 9 11 11 11 11 11 11 11 11 11 11 12 13 13 13 14 14 13 13 13 13 12 11 10 9 10 12 13 13 13 13 13 13
4 4 4 4 4 4 5 7 8 8 8 10 10 11 11 10 9 9 10 11 11 11 12 13 13 13 13 12 12 12 11 10 10 9 8 9 11 12 12 12 12 13 12
1 2 3 3 3 4 4 5 6 6 6 8 9 9 9 9 8 8 10 10 10 11 11 12 13 13 11 11 10 10 9 9 9 8 8 9 10 11 11 12 12 12 12
2 2 1 2 2 3 3 4 4 4 5 6 8 9 9 8 7 7 8 8 9 10 9 10 11 10 10 9 9 9 9 8 7 7 7 9 9 10 10 11 11 11 10
0 0 1 2 2 2 3 2 3 3 3 4 6 9 8 6 5 5 5 6 7 7 8 8 8 9 9 9 9 8 8 7 7 7 7 8 8 9 10 10 10 10 10
1 2 1 2 1 2 2 2 2 2 3 4 5 7 8 6 5 5 5 5 6 7 7 7 7 8 8 8 8 7 7 7 6 7 7 8 8 8 9 10 10 10 10
1 2 2 2 2 1 1 1 1 2 3 4 4 5 7 7 6 5 4 4 5 6 7 7 7 7 6 7 6 6 6 6 6 6 7 7 7 8 8 9 9 9 9
1 2 2 1 3 2 1 1 2 2 3 3 4 5 6 7 7 6 4 3 5 7 8 8 7 7 6 6 5 6 6 6 6 6 6 6 6 7 8 8 8 8 8
2 2 2 2 3 3 2 0 1 2 3 3 4 5 6 7 7 6 5 4 5 7 7 6 5 4 4 4 4 4 4 5 5 6 6 6 6 6 7 7 7 7 7
1 1 2 1 1 2 3 1 1 1 2 3 4 4 5 7 7 6 5 5 7 6 5 5 3 4 4 5 4 4 3 4 4 5 5 5 5 5 5 6 7 7 6
2 1 1 1 1 2 2 1 1 1 1 1 3 4 5 6 7 6 5 6 7 4 4 4 4 3 4 5 5 4 3 3 4 4 3 4 4 4 4 5 5 4 5
3 3 2 1 1 1 0 0 1 2 2 2 2 4 5 6 7 7 5 5 5 4 5 5 5 5 4 4 4 3 3 3 3 2 2 3 3 3 4 4 4 4 4
3 3 3 2 1 1 1 1 2 2 2 2 2 3 5 6 7 7 6 4 4 4 5 6 5 4 3 3 3 4 2 1 1 1 1 2 2 2 3 3 3 3 3
4 3 3 3 2 2 1 0 1 1 0 0 1 2 3 5 6 7 7 6 5 4 6 7 6 5 4 3 2 3 4 3 1 1 1 1 1 2 1 2 2 3 3
5 4 3 3 3 2 0 1 2 1 2 2 2 2 3 4 5 7 8 7 6 4 5 6 6 4 5 5 2 1 1 3 3 2 0 0 1 1 1 1 2 2 3
5 4 3 4 3 3 1 2 3 1 1 1 1 2 2 2 4 6 7 7 6 5 5 5 5 5 4 5 4 2 2 2 2 3 2 1 0 0 0 1 1 2 2
6 4 4 4 4 3 2 2 3 3 2 1 2 2 2 2 3 4 5 6 6 5 6 6 6 6 5 4 3 3 3 3 3 3 3 3 2 1 0 0 1 2 3
Wind_Direction
187 186 172 149 134 130 127 123 119 117 116 116 116 115 114 114 114 112 111 108 106 105 102 100 98 96 94 92 90 87 85 83 83 82 81 83 85 85 84 83 80 78 81
161 168 160 149 138 131 126 123 120 119 118 118 119 118 117 116 116 116 114 112 108 105 101 100 100 98 95 94 92 90 88 86 83 80 77 79 83 85 85 83 83 83 83
136 154 153 148 140 133 127 121 119 121 121 121 121 120 119 118 117 116 116 114 110 107 103 102 101 99 97 96 95 94 91 89 84 79 75 76 83 85 87 84 84 83 83
130 144 144 139 140 136 130 125 121 121 124 124 123 122 122 120 119 116 115 114 111 109 106 104 102 101 99 98 98 96 92 89 85 79 74 74 81 86 87 86 85 84 84
119 131 138 136 136 135 132 128 124 123 122 126 125 124 123 121 120 117 115 114 113 112 109 107 106 105 104 101 101 97 93 90 84 79 76 76 81 87 88 87 87 87 85
105 123 132 132 134 133 130 131 128 124 124 124 126 126 126 124 120 117 115 114 114 115 113 111 109 108 107 106 103 98 94 91 85 80 79 81 85 91 90 89 88 88 87
104 116 134 130 125 128 131 126 129 129 126 125 124 126 126 126 123 119 115 116 116 116 117 116 114 112 109 109 105 100 96 93 89 83 80 84 91 93 91 90 89 88 87
98 106 128 132 126 124 125 128 125 130 129 127 125 124 128 129 125 123 120 118 120 118 118 118 117 117 113 111 107 102 97 95 90 86 83 88 93 95 94 92 91 89 88
74 81 97 117 126 128 125 124 127 127 131 129 126 122 124 128 127 126 124 121 122 123 120 118 119 119 115 112 109 103 99 96 90 87 87 91 96 96 95 95 94 91 89
69 65 67 89 107 119 128 130 127 128 129 128 122 117 117 122 127 127 127 125 124 125 122 119 119 118 115 112 111 105 102 98 92 87 88 93 99 99 96 95 96 95 92
77 65 58 66 80 98 120 125 122 126 125 126 123 119 116 113 117 123 126 127 125 125 123 120 121 116 112 110 111 108 102 99 98 90 92 97 101 101 100 99 98 97 94
114 87 51 55 73 83 109 115 116 123 125 126 127 122 116 114 114 118 124 125 123 121 120 119 121 118 112 106 105 107 102 99 98 93 98 104 105 104 103 102 101 99 96
185 150 74 48 76 89 82 110 110 116 121 121 127 125 120 113 111 113 114 113 114 116 113 113 112 115 115 113 108 106 104 99 95 95 100 107 108 109 107 106 104 103 102
75 153 105 42 56 81 93 106 118 114 120 127 139 134 128 122 119 121 119 119 117 120 116 111 110 114 116 118 116 110 105 102 98 99 100 105 106 107 109 108 106 105 104
62 359 354 25 76 81 94 94 117 129 137 143 147 147 142 138 138 134 130 128 124 125 124 119 114 115 114 114 115 112 104 101 98 99 102 105 106 108 111 109 105 102 101
15 5 357 31 12 61 90 107 120 142 150 147 153 160 155 151 149 145 138 136 134 135 133 129 125 119 118 116 112 112 108 103 98 98 97 98 99 102 108 110 106 103 100
322 353 357 26 12 18 84 138 144 148 156 156 161 168 163 155 155 153 151 147 147 143 133 124 118 112 112 110 106 107 106 104 97 95 96 97 98 96 97 104 104 99 96
339 350 342 5 11 4 5 118 143 160 160 166 169 171 171 163 157 155 157 157 154 146 135 128 123 113 108 112 107 98 95 98 94 95 96 96 97 98 96 94 98 97 95
323 335 330 5 15 357 350 5 90 158 154 169 174 176 178 173 165 158 161 158 156 147 142 140 128 128 126 121 114 97 87 87 90 92 88 91 97 99 102 99 95 88 84
349 346 320 24 1 357 0 26 84 113 116 165 187 187 183 181 173 164 157 157 155 148 145 144 135 117 127 126 110 89 74 77 80 84 89 86 90 97 102 105 103 96 83
6 1 336 77 11 14 47 149 184 206 213 208 218 198 190 188 179 169 162 158 160 164 164 152 138 132 128 128 110 94 57 61 72 71 88 95 85 91 96 102 110 106 95
352 343 335 353 281 247 238 226 223 226 223 227 234 215 201 195 188 178 165 168 169 162 159 157 146 144 146 154 137 130 125 40 24 51 73 96 93 91 88 103 111 113 106
343 327 324 326 315 275 278 245 34 42 40 166 256 248 238 210 198 186 176 172 173 171 176 173 165 160 167 184 168 148 154 189 183 8 62 86 99 117 110 104 115 125 122
329 324 335 325 331 317 268 190 180 206 237 260 240 239 269 228 209 192 180 176 177 179 179 181 174 168 162 173 172 74 127 148 153 164 237 81 94 115 127 128 133 131 129
323 330 337 331 330 324 313 222 210 229 260 282 274 245 250 258 226 203 185 179 179 185 186 182 178 177 176 174 168 150 118 94 125 152 179 198 133 236 182 189 162 147 144
339 349 347 332 323 324 325 278 229 230 249 257 261 241 239 250 241 216 195 188 186 187 190 188 186 186 186 174 169 164 163 161 172 163 170 183 196 230 254 237 188 183 176
Height
1519 1521 1523 1525 1527 1529 1531 1532 1533 1534 1535 1536 1538 1539 1540 1541 1542 1542 1543 1544 1545 1546 1547 1548 1548 1549 1549 1550 1550 1550 1551 1551 1552 1552 1552 1553 1553 1553 1553 1554 1554 1554 1554
1518 1520 1523 1525 1528 1529 1531 1532 1534 1535 1536 1537 1538 1540 1541 1542 1543 1544 1545 1546 1547 1548 1549 1549 1550 1550 1551 1552 1552 1552 1553 1553 1554 1554 1555 1555 1555 1556 1556 1556 1556 1556 1556
1518 1520 1523 1525 1528 1530 1531 1533 1534 1536 1537 1538 1539 1540 1541 1543 1544 1545 1546 1547 1548 1549 1550 1551 1552 1552 1553 1553 1554 1555 1555 1555 1556 1556 1557 1557 1558 1558 1558 1558 1558 1558 1558
1519 1521 1523 1525 1528 1530 1532 1533 1535 1536 1537 1539 1540 1541 1542 1544 1545 1546 1547 1548 1549 1550 1551 1552 1553 1554 1554 1555 1556 1557 1557 1558 1558 1559 1559 1559 1560 1560 1560 1560 1561 1561 1561
1519 1521 1523 1525 1528 1530 1532 1534 1535 1537 1538 1539 1540 1542 1543 1544 1546 1547 1548 1549 1550 1552 1553 1554 1555 1555 1556 1557 1558 1558 1559 1559 1560 1560 1561 1561 1562 1562 1562 1563 1563 1563 1563
1519 1521 1523 1526 1528 1530 1532 1534 1535 1537 1538 1539 1541 1543 1544 1545 1546 1548 1549 1550 1551 1553 1554 1555 1556 1557 1558 1558 1559 1560 1561 1561 1562 1562 1563 1563 1564 1564 1564 1564 1565 1565 1565
1519 1522 1524 1526 1528 1530 1532 1533 1535 1537 1538 1540 1541 1543 1544 1545 1547 1548 1550 1551 1552 1553 1555 1556 1557 1558 1559 1560 1561 1561 1562 1563 1563 1564 1564 1565 1565 1566 1566 1566 1567 1567 1567
1520 1522 1524 1526 1528 1530 1531 1533 1535 1537 1538 1540 1541 1543 1544 1546 1547 1549 1550 1552 1553 1554 1556 1557 1558 1559 1560 1561 1562 1563 1564 1564 1565 1565 1566 1567 1567 1568 1568 1568 1568 1569 1569
1521 1522 1524 1526 1527 1529 1531 1533 1535 1536 1538 1539 1541 1543 1544 1546 1547 1549 1550 1552 1553 1555 1556 1557 1559 1560 1561 1562 1563 1564 1565 1566 1567 1567 1568 1568 1569 1569 1570 1570 1570 1570 1570
1520 1522 1523 1525 1527 1528 1530 1532 1534 1536 1537 1539 1541 1542 1544 1545 1547 1549 1550 1552 1553 1555 1556 1558 1559 1561 1562 1563 1564 1565 1566 1567 1568 1568 1569 1570 1570 1571 1571 1571 1571 1572 1572
1520 1521 1522 1524 1526 1528 1529 1531 1533 1535 1537 1538 1540 1542 1543 1545 1547 1548 1550 1552 1554 1555 1557 1558 1560 1561 1563 1564 1565 1566 1568 1568 1569 1570 1570 1571 1572 1572 1572 1573 1573 1573 1573
1517 1519 1521 1523 1525 1526 1528 1530 1532 1534 1536 1538 1539 1541 1543 1544 1546 1548 1550 1552 1553 1555 1557 1558 1560 1561 1563 1564 1566 1567 1568 1569 1570 1571 1571 1572 1573 1573 1573 1574 1574 1574 1575
1516 1518 1519 1521 1523 1525 1527 1529 1530 1532 1534 1536 1538 1540 1542 1543 1545 1547 1549 1551 1553 1555 1557 1558 1560 1561 1563 1565 1566 1567 1569 1570 1571 1571 1572 1573 1574 1574 1575 1575 1575 1576 1576
1515 1517 1518 1520 1522 1524 1526 1527 1529 1531 1533 1535 1537 1539 1540 1542 1544 1546 1548 1550 1552 1554 1556 1558 1560 1561 1563 1565 1566 1567 1569 1570 1571 1572 1573 1574 1574 1575 1575 1576 1576 1577 1577
1513 1514 1517 1518 1520 1522 1524 1526 1527 1529 1531 1533 1535 1537 1539 1541 1543 1545 1547 1549 1551 1553 1555 1557 1559 1561 1563 1564 1566 1567 1569 1570 1571 1572 1573 1574 1575 1575 1576 1576 1577 1577 1578
1512 1513 1515 1516 1518 1520 1522 1524 1526 1527 1529 1531 1533 1535 1537 1539 1541 1543 1545 1548 1550 1552 1555 1557 1559 1560 1562 1564 1566 1567 1569 1570 1571 1572 1573 1574 1575 1576 1576 1577 1577 1578 1578
1510 1511 1512 1514 1516 1518 1520 1522 1524 1525 1528 1529 1531 1533 1535 1538 1540 1542 1544 1546 1549 1551 1554 1556 1558 1560 1561 1563 1565 1567 1568 1570 1571 1572 1573 1574 1575 1576 1576 1577 1577 1578 1578
1509 1510 1511 1513 1514 1516 1517 1520 1522 1523 1525 1527 1529 1531 1533 1535 1538 1540 1542 1545 1547 1550 1552 1554 1556 1558 1560 1562 1564 1566 1567 1569 1570 1572 1573 1574 1575 1575 1576 1577 1577 1578 1578
1508 1509 1509 1511 1511 1513 1515 1517 1519 1521 1523 1525 1527 1529 1531 1533 1535 1538 1540 1542 1545 1547 1550 1552 1554 1557 1559 1561 1563 1565 1567 1568 1570 1571 1572 1573 1574 1575 1576 1576 1577 1577 1578
1507 1508 1508 1509 1509 1510 1513 1514 1516 1518 1520 1522 1524 1526 1528 1531 1532 1535 1537 1540 1542 1545 1548 1550 1552 1555 1557 1560 1562 1564 1566 1567 1568 1570 1571 1572 1573 1574 1575 1575 1576 1577 1577
1505 1505 1506 1507 1507 1508 1509 1510 1512 1514 1517 1519 1521 1524 1526 1528 1530 1532 1535 1537 1540 1542 1545 1548 1550 1553 1555 1558 1560 1562 1564 1566 1567 1569 1570 1571 1572 1573 1574 1574 1575 1575 1576
1502 1503 1504 1505 1506 1506 1508 1508 1510 1512 1514 1516 1518 1520 1523 1525 1527 1529 1531 1534 1537 1539 1542 1545 1547 1550 1552 1555 1558 1560 1562 1565 1565 1567 1568 1570 1571 1572 1573 1573 1574 1574 1575
1500 1501 1502 1503 1504 1505 1506 1507 1508 1509 1511 1512 1514 1517 1519 1521 1524 1525 1527 1531 1533 1536 1539 1541 1544 1547 1549 1553 1555 1557 1559 1560 1563 1565 1566 1567 1569 1570 1571 1572 1572 1573 1573
1498 1499 1500 1501 1501 1503 1503 1503 1504 1505 1506 1507 1511 1513 1516 1518 1520 1522 1524 1527 1530 1533 1535 1538 1541 1544 1547 1549 1551 1554 1556 1557 1559 1561 1564 1565 1566 1567 1568 1569 1570 1571 1572
1497 1497 1497 1498 1499 1500 1500 1501 1502 1503 1504 1506 1508 1510 1512 1514 1516 1519 1520 1523 1526 1529 1532 1535 1537 1540 1543 1546 1548 1550 1552 1554 1556 1558 1559 1562 1564 1565 1566 1567 1568 1569 1570
1495 1495 1496 1496 1497 1497 1497 1498 1499 1500 1501 1503 1504 1505 1508 1510 1512 1514 1516 1519 1522 1525 1528 1531 1534 1537 1540 1542 1545 1547 1549 1551 1552 1555 1556 1558 1560 1562 1563 1564 1566 1567 1568